Regional Weather Roundup
Issued by NWS Albany, NY

Home | Current Version | Previous Version | Graphics & Text | Print | Product List | Glossary Off
Versions: 1 2 3 4 5 6 7 8 9 10 11 12 13 14 15 16 17 18 19 20 21 22 23 24 25 26 27 28 29 30 31 32 33 34 35 36 37 38 39 40 41 42 43 44 45 46 47 48 49 50

000
ASUS41 KALY 292110
RWRALY

NEW YORK STATE HOURLY WEATHER ROUNDUP
NATIONAL WEATHER SERVICE ALBANY NY
500 PM EDT MON SEP 29 2014

NOTE: "FAIR" INDICATES FEW OR NO CLOUDS BELOW 12,000 FEET WITH NO
SIGNIFICANT WEATHER AND/OR NO OBSTRUCTIONS TO VISIBILITY.

NYZ032-033-038>043-046>054-057>066-NYZ062>081-292200-
EAST


CITY           SKY/WX    TMP DP  RH WIND       PRES   REMARKS
ALBANY         CLOUDY    70  59  68 NE3       29.92F
GLENS FALLS    CLOUDY    68  58  70 CALM      29.93S
POUGHKEEPSIE   CLOUDY    76  59  55 CALM      29.90F
NEWBURGH       PTSUNNY   75  61  60 CALM      29.93F
MONTGOMERY     CLOUDY    76  58  53 S3        29.91F
WHITE PLAINS   CLOUDY    72  54  53 CALM      29.92S
ISLIP          CLOUDY    71  61  70 CALM      29.90F
NEW YORK CITY  CLOUDY    76  57  51 NE6       29.90F
CENTRAL PARK   CLOUDY    76  57  51 CALM      29.93F
$$

NYZ005>009-017-018-044>046-055-056-292200-
CENTRAL


CITY           SKY/WX    TMP DP  RH WIND       PRES   REMARKS
FULTON         SUNNY     75  58  55 N8        29.91F
SYRACUSE       MOSUNNY   78  57  48 NE6       29.89F
ROME           MOSUNNY   77  56  48 SE3       29.92F
ELMIRA         MOSUNNY   79  49  34 S3        29.90F
BINGHAMTON     PTSUNNY   71  54  54 S3        29.94F
MONTICELLO     CLOUDY    72  55  56 S6        29.96S
$$

NYZ026>034-041>043-292200-
NORTH


CITY           SKY/WX    TMP DP  RH WIND       PRES   REMARKS
WATERTOWN      SUNNY     74  52  46 SW5       29.91F
FORT DRUM      NOT AVBL
MASSENA        SUNNY     66  56  70 E13       29.93R
SARANAC LAKE   SUNNY     75  45  34 VRB3      29.92F
PLATTSBURGH    CLOUDY    71  58  63 NE7       29.92S
$$

NYZ001>004-010>016-019>021-292200-
WEST


CITY           SKY/WX    TMP DP  RH WIND       PRES   REMARKS
NIAGARA FALLS  MOSUNNY   76  54  46 SW12      29.89F
BUFFALO        MOSUNNY   73  58  59 SW9       29.91F
DUNKIRK        SUNNY     71  58  63 VRB7      29.92F
JAMESTOWN      SUNNY     68  55  64 W8        29.95F
WELLSVILLE     SUNNY     70  51  51 W6        29.96F
ROCHESTER      MOSUNNY   74  52  46 NE10      29.91F
PENN YAN       MOSUNNY   76  55  48 VRB5      29.91F
$$

             KEY
       WCI = WIND CHILL INDEX
       VSB = VISIBILITY
       HX  = HEAT INDEX
$$


USA.gov is the U.S. government's official web portal to all federal, state and local government web resources and services.